Wind_Speed
12 11 9 7 6 7 7 7 8 10 11 11 11 14 18 20 20 19 19 19 19 18 18 18 16 15 13 11 11 11 12 13 14 15 15 15 16 17 17 16 16 16 15 15 15 17 18 19 20 21 20 17 11 6 6 5 5 5 6 6 7 9 10 10 11 11 10 9 9 10 11 12 13 14 14 15 15 16 17 18 19 19 19 20 20
11 9 7 6 7 8 8 8 10 12 13 13 12 16 19 20 17 15 15 16 15 15 16 16 16 15 15 14 13 13 12 12 13 13 14 15 16 18 19 19 18 18 18 17 17 18 19 20 22 24 23 19 12 6 4 4 4 4 5 5 5 6 7 8 10 11 10 9 9 10 11 12 14 16 17 18 19 20 21 21 20 20 19 19 20
9 7 7 8 9 8 8 11 13 14 16 16 16 18 19 18 16 13 13 13 12 12 13 14 14 13 14 15 16 15 14 13 12 12 12 14 15 17 18 19 19 19 20 20 19 19 20 22 24 26 25 20 12 5 3 3 3 4 5 6 6 6 6 7 8 9 10 10 10 11 13 14 16 17 18 20 22 23 24 24 22 20 19 18 18
8 8 9 9 8 8 10 13 15 17 18 18 18 19 19 16 14 12 11 11 10 10 11 12 12 12 12 13 15 15 15 14 13 12 12 12 14 15 16 17 18 18 19 20 20 20 21 24 26 27 25 20 14 7 3 2 2 4 6 7 7 7 7 7 7 8 9 10 10 11 13 15 17 19 20 21 23 24 23 22 21 20 18 17 16
9 9 9 9 8 9 12 15 17 19 19 18 18 18 17 14 12 11 10 9 8 9 10 10 10 10 11 12 12 13 15 15 14 13 12 12 12 13 15 15 16 17 17 18 20 21 22 24 26 27 25 21 15 9 6 3 2 3 5 7 7 7 8 8 8 9 10 10 11 12 13 16 18 20 21 22 23 23 21 19 19 18 16 14 13
9 9 9 9 9 10 13 16 19 20 19 18 17 16 14 12 10 10 8 7 7 7 8 8 8 9 10 11 11 12 13 14 14 14 13 12 11 11 13 14 14 15 16 17 18 19 21 24 26 26 24 21 16 11 8 6 4 4 7 8 8 9 9 10 10 11 11 11 12 12 14 15 17 18 19 20 22 22 22 19 17 16 16 14 11
10 10 10 9 10 12 15 17 20 20 20 18 16 14 12 10 8 7 6 6 5 5 6 7 8 8 9 10 10 10 11 12 13 13 14 13 12 11 11 12 13 13 14 15 17 18 20 22 25 26 24 20 15 12 10 9 6 5 7 8 8 11 12 12 13 13 13 12 12 12 13 14 15 16 17 17 17 18 20 21 20 18 17 14 11
12 10 10 10 10 13 16 18 20 20 18 16 14 12 10 9 7 5 4 4 4 4 5 7 7 8 9 9 9 9 10 10 11 12 13 14 13 12 11 11 12 13 13 14 15 17 19 21 24 26 23 18 14 11 11 11 9 5 6 7 9 12 14 15 15 14 14 13 12 11 10 11 12 13 14 14 14 15 19 21 23 22 19 13 9
13 11 10 9 11 14 17 18 19 19 17 15 13 12 9 7 5 4 4 3 3 4 5 6 7 8 8 8 8 8 9 9 10 11 12 13 14 14 13 12 12 13 13 14 15 16 18 20 23 25 23 17 12 9 8 10 9 5 4 7 9 12 16 18 17 16 16 15 12 9 9 10 12 13 14 15 15 17 18 20 22 22 16 10 6
13 12 10 9 10 12 14 16 18 17 16 14 12 11 8 6 5 3 2 2 2 3 4 5 6 7 7 7 8 8 8 8 8 10 11 12 13 14 14 13 13 13 14 14 14 15 17 20 22 24 23 17 11 7 5 7 8 6 5 8 10 13 17 18 17 17 17 15 12 11 11 12 14 16 16 15 15 17 18 19 21 21 16 10 6
14 13 11 9 8 8 11 14 14 14 14 13 12 10 8 6 6 4 2 1 2 3 2 4 6 6 6 7 8 7 6 6 7 8 10 11 12 14 15 14 14 14 14 15 15 14 16 19 21 23 23 18 12 6 3 4 5 5 6 8 10 14 17 17 17 17 16 14 13 13 14 14 15 17 16 15 16 18 18 19 19 19 17 14 11
15 14 12 11 8 4 7 11 12 12 13 13 12 10 9 7 6 5 3 1 2 3 3 4 5 5 5 5 5 5 5 5 6 7 9 10 12 13 14 15 14 14 14 15 14 13 14 17 19 22 23 19 14 8 2 1 2 3 4 6 9 12 14 15 16 15 14 14 14 14 14 14 14 16 17 17 17 18 19 19 18 16 15 15 14
16 15 13 12 8 4 2 7 10 11 12 12 12 12 11 9 8 6 4 2 1 2 3 4 5 5 5 5 4 4 4 4 5 6 7 9 11 12 13 14 14 14 14 14 14 13 13 15 17 20 21 19 15 11 5 1 2 3 4 6 9 10 12 12 12 13 13 13 14 14 14 14 14 15 16 16 17 19 20 21 20 16 12 12 13
16 14 14 13 9 4 2 3 9 11 11 12 13 13 13 11 10 8 6 4 2 2 4 6 6 6 7 6 6 6 6 6 6 7 7 8 10 11 13 14 14 14 13 14 13 12 12 14 15 17 19 19 16 14 11 5 3 5 6 8 9 10 11 10 9 10 11 13 13 14 14 14 14 14 14 14 16 18 20 22 22 18 12 9 11
16 14 13 11 9 4 2 1 6 10 11 12 14 14 14 13 12 10 8 5 3 4 5 6 6 6 7 8 8 9 8 7 8 8 7 8 10 11 12 13 14 13 13 13 13 12 12 12 13 15 17 18 17 15 14 11 9 8 8 9 8 8 9 9 9 9 10 11 13 13 13 13 13 14 14 14 16 17 18 20 20 18 12 7 7
16 14 12 10 8 4 2 2 5 8 11 14 16 15 14 14 12 10 6 3 3 4 6 6 5 5 7 8 10 10 9 8 9 9 8 8 9 11 12 12 13 13 13 13 13 12 11 11 11 12 13 15 16 15 13 12 11 11 11 11 9 7 6 7 8 8 10 11 12 12 13 13 13 14 15 16 16 17 17 17 16 15 13 8 6
15 13 12 11 10 6 3 4 5 7 11 15 17 16 15 14 11 7 4 2 3 5 6 5 4 5 6 7 9 9 8 8 9 9 9 9 10 11 11 11 11 12 12 12 12 12 11 10 10 10 11 12 13 13 12 11 11 12 12 12 11 9 6 5 6 8 9 10 12 13 13 13 13 14 15 16 17 17 18 18 15 14 13 10 8
16 15 12 12 12 9 6 6 6 7 11 15 16 16 15 13 9 5 3 2 3 4 4 4 4 5 6 7 9 10 9 8 8 9 10 10 10 10 10 9 9 9 9 10 11 11 11 9 9 9 9 9 10 11 10 10 11 12 12 13 13 11 8 7 8 9 11 12 13 14 14 14 14 13 13 14 15 16 18 18 16 13 12 11 10
18 15 12 12 13 12 10 8 8 8 10 13 14 15 14 11 8 5 4 3 2 3 4 4 4 4 6 8 9 11 11 9 8 9 9 10 10 10 9 8 7 7 8 9 10 11 11 10 9 9 8 8 8 8 9 9 10 11 12 12 13 12 11 10 11 11 12 15 15 14 14 14 12 12 12 11 12 14 16 16 14 11 10 10 11
16 13 12 14 14 14 12 10 9 10 11 11 12 13 12 10 8 6 5 4 4 4 4 5 5 5 6 8 10 11 11 10 9 8 8 9 10 9 7 6 6 6 7 9 10 11 11 11 10 9 9 8 8 8 8 9 10 11 12 12 13 13 12 11 11 11 13 15 15 13 13 13 11 11 11 11 12 14 13 11 10 9 8 8 8
14 13 14 15 14 14 13 12 11 11 12 12 12 12 11 10 8 6 6 5 6 6 6 6 6 7 7 9 10 11 11 10 9 8 7 8 8 7 7 6 6 7 8 9 10 10 11 12 11 10 10 9 8 8 8 9 10 11 12 13 14 14 13 12 11 12 13 14 14 13 14 13 12 11 11 12 13 13 10 8 8 8 7 7 7
14 14 15 14 13 13 14 13 11 10 11 12 12 12 11 10 8 7 6 6 7 8 8 7 7 8 9 10 11 11 11 10 9 8 6 7 7 7 7 6 6 7 8 9 10 10 11 12 12 11 11 10 9 9 9 9 10 10 11 13 14 14 14 13 12 13 13 13 13 13 14 15 15 13 12 12 13 11 9 9 10 8 6 6 8
15 15 14 13 13 12 12 13 12 11 10 11 12 11 10 9 8 8 7 7 8 9 9 8 8 9 10 11 11 11 11 9 9 8 7 6 7 7 7 6 7 9 9 10 11 11 11 12 12 12 12 11 10 10 10 10 10 10 11 12 13 14 14 13 12 13 13 13 13 13 13 15 16 15 13 12 12 10 9 9 11 10 7 6 6
15 15 13 13 13 11 11 13 12 11 10 10 10 11 10 10 9 9 9 9 10 10 10 9 9 11 11 12 12 11 10 10 9 8 8 8 8 9 9 8 9 10 11 11 12 12 13 12 12 12 12 12 12 11 11 10 10 10 11 12 13 14 13 12 12 12 12 12 13 13 13 14 15 14 11 11 12 10 8 8 10 11 10 6 5
16 15 12 12 12 12 12 13 12 10 10 9 9 10 10 10 10 9 10 10 11 11 10 10 11 12 13 13 12 11 10 10 10 9 9 10 10 10 11 11 11 12 13 13 12 13 14 14 13 13 13 13 13 13 12 11 11 11 11 12 12 12 12 11 11 11 12 12 13 14 13 12 12 11 9 10 11 10 8 7 7 9 10 7 3
16 14 12 11 11 11 13 13 12 10 10 9 9 10 11 11 11 10 11 11 11 11 11 11 12 13 14 15 13 11 10 10 11 11 11 12 12 11 12 12 12 13 14 14 14 14 14 15 15 15 14 14 14 14 14 12 12 12 12 12 12 11 11 11 10 10 12 13 13 14 12 10 9 9 9 9 9 9 8 7 7 7 7 6 3
14 13 12 11 10 12 14 14 12 11 10 10 11 11 11 11 11 11 11 11 11 11 12 12 13 14 15 14 12 11 11 10 10 10 11 13 13 13 13 13 13 14 14 15 15 15 16 16 16 16 15 14 14 15 15 14 14 13 13 13 12 11 11 10 10 10 10 12 13 14 12 9 8 9 9 8 8 8 8 8 8 8 6 6 5
12 12 12 10 10 11 13 13 12 10 9 9 9 9 8 9 9 9 9 9 10 11 12 13 13 13 14 13 12 12 11 9 9 9 10 12 13 13 14 14 14 14 15 15 16 17 18 18 18 17 17 16 15 15 15 15 15 14 14 14 13 11 10 10 10 9 10 10 11 13 13 10 8 9 9 8 7 7 8 9 10 9 8 7 7
12 12 12 11 9 9 10 11 11 9 8 6 6 6 6 7 8 8 7 8 9 11 12 13 13 13 13 14 14 14 13 10 8 9 10 11 12 13 13 14 14 15 15 16 18 19 20 20 19 19 18 17 17 16 15 15 15 15 15 15 15 13 10 10 10 9 9 9 9 10 12 11 9 9 10 9 8 7 7 9 11 10 8 7 7
11 12 12 11 10 8 9 10 10 8 7 6 5 5 6 7 8 8 8 8 9 12 13 14 13 13 15 15 15 15 15 12 10 10 12 12 13 14 14 14 15 16 17 18 20 21 22 21 21 20 20 19 18 17 16 15 16 16 15 15 15 14 12 10 10 10 10 9 9 9 10 11 10 8 9 9 9 7 6 9 11 9 7 6 7
11 11 12 12 10 9 10 11 10 8 7 6 5 5 6 7 8 9 10 10 10 12 13 14 14 14 16 16 16 15 15 14 13 13 14 14 14 15 16 17 17 17 18 20 22 23 23 23 22 21 21 20 19 17 16 16 16 16 16 15 14 14 13 11 10 10 11 10 8 8 9 10 10 9 8 8 8 6 5 8 9 7 6 7 8
10 11 11 11 11 12 13 12 10 8 7 5 4 5 6 6 7 8 9 10 12 13 14 15 16 16 16 17 17 17 16 16 16 16 16 16 16 16 17 18 19 19 20 22 23 24 24 24 23 22 21 20 18 16 16 16 17 16 16 16 15 14 13 12 10 11 12 11 9 9 9 9 9 9 8 7 7 5 5 6 6 5 5 6 7
11 11 11 12 14 15 15 13 10 8 6 4 4 5 6 7 9 10 10 11 13 15 16 16 17 17 16 16 17 17 17 18 18 19 18 18 18 18 19 20 20 21 22 23 24 24 23 23 23 22 21 20 18 16 16 17 17 17 16 16 15 13 12 12 12 12 12 11 10 10 10 9 8 9 9 7 6 6 5 4 4 5 5 5 5
12 11 12 14 16 17 15 13 10 8 6 6 6 7 8 9 11 13 14 15 17 17 17 16 16 17 17 16 17 17 18 18 19 19 20 20 20 20 21 21 22 22 22 23 24 24 23 23 22 21 20 20 18 17 17 17 17 17 16 16 16 14 12 13 13 13 12 12 11 11 11 10 9 9 9 8 6 6 6 6 5 6 6 5 5
13 12 13 16 18 17 14 12 10 9 8 8 9 9 10 11 13 15 17 19 21 21 19 16 14 14 15 16 17 17 18 18 18 19 20 22 22 22 23 23 23 22 22 23 23 23 23 24 23 21 20 20 19 18 18 17 17 18 17 16 15 14 13 13 13 12 12 12 12 12 12 12 10 9 9 9 7 7 7 7 7 7 7 6 4
14 13 14 17 18 15 13 12 12 11 11 11 11 12 13 14 17 18 20 22 23 22 19 17 15 14 15 16 16 17 17 17 18 18 19 20 21 21 22 23 23 23 23 23 23 23 24 24 23 22 21 20 20 20 19 18 18 18 18 17 16 15 15 14 13 12 11 12 11 12 13 13 12 10 10 9 8 7 8 8 8 7 6 5 4
15 15 16 17 17 15 14 14 14 14 14 14 14 15 16 18 19 21 22 22 21 19 18 18 17 17 17 16 15 16 17 18 18 19 19 19 20 21 21 22 23 23 23 23 24 24 24 24 23 22 21 20 20 20 20 19 18 18 18 17 16 16 16 15 14 13 13 12 12 11 12 13 13 12 10 9 8 7 8 9 9 8 6 4 3
16 16 16 15 14 14 13 14 14 13 14 14 14 15 16 17 18 18 18 18 18 18 19 19 19 20 19 17 16 16 17 19 19 20 20 20 21 21 22 23 23 24 24 24 24 25 25 24 24 23 21 21 20 20 20 19 19 19 18 17 16 16 16 17 17 16 15 14 13 12 12 13 13 13 11 9 8 7 8 10 10 9 8 6 5
16 15 14 13 12 11 10 10 10 10 10 11 11 12 13 14 15 16 16 17 18 19 20 20 20 20 19 19 18 18 19 19 20 20 21 21 21 22 23 24 24 25 24 24 24 24 25 25 24 23 22 21 20 20 20 20 19 19 19 18 17 16 16 17 17 17 17 16 14 12 12 12 12 13 12 10 8 7 7 9 11 11 10 9 7
15 14 12 11 11 10 9 8 8 9 10 11 12 14 15 16 17 18 19 20 21 21 22 22 22 21 20 20 20 21 22 22 22 22 23 23 23 24 25 25 25 25 24 24 23 23 24 24 24 23 23 22 21 20 20 20 20 20 20 20 19 17 16 16 16 17 17 17 15 14 13 13 12 13 13 11 8 7 7 8 10 11 12 11 10
14 12 11 10 9 8 8 9 10 11 12 13 14 15 16 17 18 19 21 22 23 24 24 25 25 24 22 22 22 23 25 26 25 24 25 25 25 26 26 26 25 24 24 24 23 22 23 23 23 22 22 22 21 21 21 21 20 20 20 21 20 19 17 17 16 16 17 17 16 16 15 14 13 14 13 11 9 9 8 8 9 10 11 11 11
13 12 11 9 8 8 9 10 11 11 12 13 14 15 16 17 19 20 21 23 23 25 26 26 26 25 24 22 21 22 25 26 25 25 25 26 26 27 27 26 25 25 25 24 24 23 23 22 22 21 21 21 21 21 21 21 21 21 21 21 21 20 19 18 17 16 16 16 16 17 16 15 15 15 14 12 11 11 10 9 9 10 10 11 11
13 11 9 8 8 9 10 10 11 12 13 14 15 16 18 19 20 21 22 23 24 25 26 27 27 26 25 23 22 23 24 25 26 26 26 26 27 27 26 26 25 25 24 24 24 23 23 23 22 21 21 21 21 21 21 21 21 21 22 22 22 21 21 20 19 17 17 16 16 16 17 16 16 16 16 14 14 13 12 11 11 11 11 12 12
13 11 10 10 10 11 11 12 12 13 14 15 17 18 18 19 20 22 23 24 25 25 25 26 26 26 25 24 23 23 25 26 26 27 28 28 28 28 26 25 25 25 24 24 24 23 24 23 22 22 22 23 23 23 23 22 22 22 23 24 24 24 23 23 22 20 18 17 16 16 17 17 17 17 18 17 16 16 15 14 13 12 12 12 14
13 12 12 13 13 13 13 13 14 15 16 16 17 18 19 21 23 25 26 26 25 26 27 27 26 26 26 26 26 27 28 29 29 30 30 31 30 28 26 25 25 25 25 25 23 23 24 24 24 23 23 23 24 25 25 25 24 24 24 24 24 25 24 23 22 22 21 19 18 17 17 18 18 18 18 19 18 18 17 16 15 14 13 13 14
13 14 15 15 14 13 13 14 15 16 17 18 20 21 23 25 26 27 27 27 28 29 30 30 29 29 29 30 30 31 32 32 33 33 33 32 32 30 29 28 28 27 27 26 25 24 23 24 25 26 26 25 26 27 27 26 26 25 25 25 25 25 24 23 23 23 22 22 21 20 19 19 19 19 19 19 19 19 19 18 17 16 15 14 14
13 14 15 14 13 14 15 16 18 19 20 21 22 24 25 26 27 28 28 29 30 31 32 31 31 31 31 32 33 34 35 35 35 35 34 33 32 31 30 30 29 29 28 28 27 26 25 25 25 26 27 27 27 27 28 28 28 27 26 26 25 25 24 24 24 23 23 23 23 23 23 22 21 20 20 20 20 20 20 20 20 19 18 16 14
12 12 13 14 15 16 18 19 20 20 22 23 24 25 26 27 27 28 28 29 30 31 32 32 32 32 33 35 36 35 35 34 33 31 31 30 29 29 29 29 29 29 29 29 29 29 28 27 26 26 26 27 27 26 26 27 28 29 28 27 27 26 25 25 25 24 24 24 24 25 25 25 24 23 23 22 22 22 22 22 22 21 20 19 16
13 14 15 16 17 18 19 20 21 22 23 24 25 26 27 27 28 29 30 31 32 33 33 34 34 34 34 34 32 30 28 26 26 25 25 24 24 24 25 25 26 27 28 29 30 29 28 28 27 27 28 28 27 27 27 26 26 28 29 29 28 27 27 27 27 26 25 25 25 26 26 27 26 26 25 25 25 24 23 23 23 23 23 22 19
14 15 16 17 17 18 19 21 22 23 24 25 26 27 28 28 29 30 30 30 31 32 32 31 30 29 27 26 25 24 23 23 23 23 22 22 22 22 22 23 24 25 25 27 27 27 28 29 29 29 29 29 29 29 29 28 27 27 28 29 29 29 27 28 29 29 28 28 27 27 27 27 28 28 28 28 27 27 26 25 25 24 24 25 23
13 14 15 16 18 19 20 22 23 24 25 26 27 28 29 28 28 28 29 28 28 27 27 26 25 24 24 24 24 23 23 22 22 22 22 22 22 22 22 23 25 25 25 25 25 25 26 28 30 31 32 32 32 32 32 31 29 28 27 27 28 30 29 29 29 30 31 30 29 29 29 29 29 29 29 30 30 30 29 27 27 26 26 26 26
Wind_Direction
191 194 196 212 211 196 206 205 180 167 159 154 143 128 121 113 102 93 86 83 79 75 72 66 62 58 52 44 40 39 36 32 28 27 27 24 28 38 43 35 27 25 24 24 25 23 19 13 8 4 1 1 1 347 332 338 350 351 341 330 324 321 327 340 347 347 343 334 326 321 320 322 325 328 332 335 338 342 344 343 341 341 343 345 346
193 195 196 202 201 195 189 173 161 158 158 157 149 136 129 120 109 100 92 87 82 76 71 68 64 60 58 56 51 45 41 37 32 30 29 25 28 41 47 43 40 40 38 36 32 27 20 13 8 6 4 5 5 353 335 339 349 1 359 349 341 334 333 340 344 344 342 334 323 316 314 314 318 324 329 333 335 336 335 333 333 335 337 337 338
194 194 195 194 192 183 165 157 155 154 153 153 149 143 136 127 116 107 97 91 85 77 70 67 62 56 54 53 53 51 48 44 40 32 28 24 24 35 44 44 42 41 40 37 33 27 20 12 8 7 8 12 14 8 359 354 0 22 29 25 16 5 353 344 341 339 336 334 329 319 316 320 322 324 327 331 331 330 329 329 329 331 330 329 331
187 188 192 190 181 163 154 154 154 152 152 151 149 147 142 133 121 113 106 98 89 79 71 66 59 51 45 43 46 49 47 44 41 32 25 21 19 25 36 41 40 37 36 33 28 23 17 12 10 7 8 14 17 17 34 29 16 33 38 35 29 20 11 357 344 338 330 326 327 324 320 323 324 323 322 323 325 326 327 328 328 328 327 326 326
177 184 190 185 168 155 155 156 154 153 154 152 150 149 146 138 127 121 116 105 90 77 68 61 51 41 34 32 34 40 41 39 36 32 25 18 14 16 24 35 38 35 32 28 24 20 14 11 10 6 6 12 16 22 36 33 18 29 25 21 20 18 13 3 350 339 330 321 319 319 317 315 315 317 319 321 325 327 329 332 331 329 326 322 318
171 179 184 177 164 157 159 158 155 155 155 153 152 150 147 141 133 128 122 106 86 71 61 49 37 26 21 19 21 27 32 32 30 30 26 20 14 10 13 22 29 30 28 23 19 16 12 10 9 6 5 8 15 24 28 16 12 23 16 7 2 358 354 352 348 342 336 329 321 318 317 315 314 317 323 328 330 330 331 332 331 331 329 325 318
167 170 173 172 164 159 159 158 156 156 156 156 156 153 151 150 144 137 126 103 79 65 51 31 19 12 4 4 9 14 19 23 24 25 25 22 16 9 7 10 15 19 20 17 13 10 9 7 6 6 4 4 10 23 24 15 17 29 22 10 359 357 357 353 347 342 336 333 328 324 323 323 322 324 329 329 327 329 334 336 337 338 336 334 328
160 160 166 169 163 159 157 155 156 157 159 160 160 156 152 151 148 141 124 101 73 49 26 5 358 355 350 350 357 2 6 13 17 18 20 20 16 12 6 2 4 8 9 10 7 4 4 4 3 4 5 2 7 24 28 20 25 38 26 11 5 8 10 5 357 351 345 338 334 332 331 329 327 327 329 331 331 337 344 346 347 345 342 341 340
152 151 159 163 163 164 162 159 161 163 165 165 161 154 146 139 133 122 103 80 47 14 348 335 335 340 341 345 350 354 358 3 8 12 14 14 12 11 9 2 359 359 0 3 2 358 358 1 1 2 4 2 5 27 34 19 23 40 24 7 9 11 8 4 5 5 359 352 348 352 357 350 343 343 349 358 357 351 351 355 354 353 355 356 352
148 147 146 146 159 171 173 173 173 172 171 170 166 159 153 145 137 122 100 58 8 342 324 320 327 332 336 342 345 347 351 356 2 5 9 9 5 4 5 3 358 355 354 357 358 355 355 358 359 0 3 3 6 24 35 19 24 38 28 17 14 5 359 0 7 11 8 6 7 7 7 3 358 360 6 12 8 359 359 1 357 358 9 15 6
151 147 137 129 140 164 177 179 178 176 173 173 173 173 172 166 155 151 148 80 20 0 335 322 321 321 325 332 337 343 348 355 1 1 0 2 1 359 359 360 359 355 352 353 354 354 355 357 358 359 2 6 10 17 25 23 25 27 17 11 2 354 353 355 2 8 9 10 11 8 4 3 3 4 6 10 9 6 6 6 360 360 9 15 12
159 151 141 131 120 124 167 174 176 178 177 177 182 184 183 180 171 173 184 142 53 26 355 320 307 300 304 318 332 341 346 352 359 355 349 350 354 356 355 354 356 355 352 352 351 351 355 358 358 359 2 7 13 17 9 339 17 10 358 349 342 343 348 350 355 3 6 6 6 4 2 3 4 3 3 6 7 6 6 7 5 3 6 12 14
167 160 152 143 121 79 137 174 178 186 188 188 193 191 187 189 186 187 196 187 118 10 344 323 309 297 293 303 324 337 341 340 341 342 339 338 343 349 351 350 351 351 351 351 350 348 354 359 358 0 5 8 14 23 25 287 271 296 306 316 324 332 341 349 355 360 3 4 4 4 5 5 3 1 1 3 2 0 3 4 3 0 0 9 15
173 168 161 156 145 99 37 174 182 194 201 196 191 189 189 192 193 197 201 203 221 300 320 316 312 303 296 300 316 330 337 329 320 322 327 328 332 339 346 347 347 347 347 350 351 347 351 359 360 1 8 12 17 26 30 21 336 316 310 314 324 331 340 355 4 3 4 6 4 5 6 5 3 0 359 0 357 353 355 356 355 354 355 9 18
177 175 169 168 163 147 12 299 187 196 204 196 187 188 191 194 197 202 205 211 246 296 308 303 302 301 300 304 312 321 328 323 313 310 314 320 324 330 338 344 344 344 345 348 351 349 349 355 359 2 10 17 24 31 35 34 25 9 354 346 347 347 351 0 6 5 7 8 5 4 2 357 355 353 351 351 348 345 346 347 347 348 349 358 15
181 181 183 186 180 179 272 271 196 195 202 196 189 188 192 196 200 202 206 222 271 303 304 294 293 303 308 310 312 317 322 319 311 306 306 310 317 323 331 339 341 342 345 349 351 350 349 351 354 360 9 20 29 38 40 38 30 18 9 2 357 354 354 0 5 7 9 8 3 0 356 350 345 342 339 338 336 336 338 337 339 349 352 352 4
188 191 199 200 192 195 246 248 210 202 202 196 193 194 194 196 197 196 199 239 291 303 296 283 289 307 315 318 318 318 320 318 309 304 304 307 311 317 324 333 340 341 345 351 351 348 348 347 347 353 4 15 26 36 38 35 27 20 16 12 5 357 350 346 348 354 358 358 351 346 345 344 342 339 333 330 329 331 333 333 337 348 353 358 10
196 200 206 205 199 201 216 223 214 207 200 195 195 197 195 191 190 190 202 250 302 307 294 288 297 304 314 325 326 321 318 314 306 303 306 308 309 313 319 327 338 342 347 355 353 347 345 342 339 344 352 1 13 24 27 23 16 13 13 14 12 6 358 349 343 342 349 351 342 334 334 337 341 340 332 326 326 326 327 330 331 333 343 359 12
199 202 206 205 204 203 202 205 204 195 188 185 185 189 191 190 187 191 212 248 288 303 302 305 306 304 315 329 332 325 317 311 306 305 307 306 305 308 314 325 336 342 350 357 355 350 346 339 333 333 336 340 351 4 9 5 2 1 359 1 6 5 1 359 353 347 354 358 353 345 343 345 346 343 336 328 325 324 324 325 322 321 334 353 7
198 204 208 205 203 203 202 202 196 185 178 176 178 184 191 194 193 201 223 247 266 284 297 303 307 316 324 330 334 329 319 311 309 308 303 303 305 308 312 319 330 338 346 351 352 352 350 344 336 329 325 326 330 338 346 347 347 349 348 347 350 352 356 2 1 355 357 2 1 357 354 352 351 349 347 342 336 332 329 324 316 315 328 347 6
197 205 206 201 200 203 203 199 193 188 185 184 186 192 198 201 204 217 237 251 267 282 290 294 302 317 326 328 331 328 318 310 310 309 303 302 307 313 314 317 326 336 343 346 347 348 348 348 343 334 325 320 319 321 327 331 334 339 341 339 338 339 343 351 356 355 355 357 359 358 354 351 350 351 355 355 349 345 348 346 333 321 321 338 359
198 203 203 202 200 198 198 195 193 195 198 198 197 198 203 208 214 228 243 257 275 286 287 287 296 312 321 325 325 320 309 304 307 304 298 297 303 312 318 318 323 331 337 341 342 343 343 344 343 339 330 321 315 313 314 317 323 329 334 335 334 334 335 336 339 344 346 349 353 354 351 350 348 344 347 355 357 357 3 3 354 339 320 327 348
197 201 204 205 199 194 197 199 198 201 206 208 204 200 204 216 224 233 245 258 276 286 285 285 293 306 316 323 326 318 301 294 298 295 285 286 297 305 310 311 314 321 327 331 332 334 336 336 336 335 332 324 315 308 305 307 312 318 324 328 331 334 336 335 334 337 339 341 345 347 346 348 348 344 342 349 357 3 6 1 358 355 336 311 321
194 199 203 203 201 202 204 200 198 202 208 213 213 209 212 224 231 241 251 261 273 280 281 283 292 303 312 320 328 325 304 286 285 284 278 280 288 296 302 306 311 317 323 325 324 324 325 326 325 325 326 324 317 308 302 300 302 308 314 319 323 328 332 334 335 335 336 336 338 339 339 342 346 346 343 346 352 358 358 350 350 356 353 326 300
194 198 198 198 204 212 208 198 197 203 208 216 223 224 227 234 238 248 258 263 270 275 277 283 292 302 309 313 320 326 312 288 277 276 277 279 284 291 297 301 306 312 318 321 321 318 317 317 315 315 315 315 313 309 304 299 296 298 305 310 317 324 328 331 334 336 339 340 337 336 335 335 341 345 343 343 348 350 347 337 335 350 2 2 330
194 198 198 198 203 207 206 204 203 205 211 223 232 235 239 243 247 253 258 260 264 268 274 285 295 302 307 309 310 313 309 293 277 271 274 279 285 290 294 294 296 301 309 316 319 317 315 313 312 311 309 306 304 304 304 299 292 291 296 303 312 319 323 327 331 336 345 351 347 342 338 331 332 337 334 335 345 351 349 343 335 340 358 8 354
196 200 200 201 202 204 205 207 207 211 220 229 234 237 240 244 248 251 252 254 260 267 277 288 296 301 306 308 305 303 303 300 291 281 276 278 281 284 286 287 288 291 300 310 314 313 313 313 313 313 312 308 301 297 297 297 295 292 292 296 304 311 314 318 325 332 344 356 360 358 355 343 331 330 325 325 339 349 350 346 339 331 332 341 339
199 201 200 202 207 205 201 202 206 213 220 224 228 234 241 246 250 250 251 257 265 273 283 290 295 300 303 303 302 300 299 301 301 295 286 280 279 280 282 284 285 288 295 303 306 306 309 312 314 315 315 314 309 300 294 293 293 293 292 291 294 300 302 305 312 323 335 350 2 8 7 0 346 337 333 326 325 334 343 346 343 335 322 315 319
199 199 201 207 210 202 196 199 202 203 204 211 220 227 233 242 250 253 257 264 272 281 287 290 295 299 298 295 295 294 294 294 295 291 288 287 287 286 287 288 289 290 293 297 298 300 304 307 311 314 314 315 315 311 302 295 290 290 290 287 287 289 292 295 302 309 321 337 350 2 7 6 356 344 340 333 322 323 334 340 343 344 334 317 312
196 198 202 207 209 202 192 192 191 188 191 199 208 217 227 241 255 266 271 271 274 279 282 286 292 294 292 292 291 287 285 285 285 284 286 289 290 290 290 291 290 291 292 293 294 297 300 303 306 310 312 313 314 313 310 302 294 289 287 284 281 282 284 290 296 298 306 321 333 344 357 3 356 342 334 331 328 327 331 340 347 355 356 347 337
200 201 202 203 203 194 184 183 184 185 189 196 210 231 246 253 258 268 277 281 282 283 283 286 290 290 289 291 291 285 280 279 281 282 283 284 286 287 288 288 288 289 290 290 291 294 297 300 303 306 309 309 309 308 308 305 300 294 290 286 282 280 282 288 292 291 294 305 316 324 338 351 354 346 332 324 326 329 330 340 353 10 19 9 1
207 202 196 193 190 185 182 183 186 187 192 207 234 257 269 268 263 265 274 284 293 296 295 293 293 290 289 289 289 287 282 280 280 280 280 281 283 285 285 285 286 286 287 287 288 291 294 297 300 303 305 305 304 303 303 304 303 299 293 290 289 284 283 287 288 284 286 294 302 308 318 332 342 345 338 322 316 318 319 330 351 8 10 3 2
208 198 188 184 184 184 184 186 187 189 197 217 239 255 271 280 283 285 288 293 298 301 302 300 296 293 291 289 290 290 288 284 282 280 278 278 281 283 285 285 285 284 284 284 286 290 293 295 298 302 303 302 300 299 298 299 302 300 294 291 292 290 285 283 281 279 282 288 291 295 303 313 324 335 338 325 306 301 300 306 334 350 346 338 345
203 194 187 185 187 187 188 188 190 194 205 224 238 253 268 278 286 293 298 304 307 306 304 303 299 296 292 290 289 291 290 287 283 280 277 277 278 281 283 285 286 286 286 287 288 291 294 296 298 300 300 298 295 295 295 296 298 300 296 290 288 286 281 277 277 279 282 284 284 286 291 296 304 319 331 325 302 289 286 283 295 321 334 330 321
197 192 191 191 190 191 194 198 203 212 225 237 250 263 272 279 286 293 299 306 309 308 305 305 305 302 297 293 289 287 286 285 284 280 278 278 278 280 281 283 285 288 290 290 291 292 293 295 296 296 297 294 290 289 291 292 294 296 297 291 283 278 273 270 271 275 279 280 280 280 282 286 291 302 319 323 306 284 277 277 281 299 324 334 315
190 191 194 194 194 198 207 216 224 232 242 251 261 270 276 281 287 292 298 303 305 304 304 307 312 312 307 303 300 295 288 284 282 281 280 279 280 281 282 283 286 289 290 290 290 290 291 292 293 292 292 289 286 285 285 287 288 290 293 291 282 273 268 266 266 269 272 276 277 275 275 278 282 289 305 318 314 291 276 272 274 284 304 328 329
187 190 193 196 200 208 219 227 234 242 250 258 266 273 279 284 288 292 296 299 299 299 301 306 312 312 310 310 311 306 296 286 279 277 278 278 279 280 282 284 287 288 288 287 287 287 287 288 289 289 287 285 283 282 281 282 283 283 285 287 284 277 270 266 265 265 265 268 271 270 269 271 274 279 292 308 314 298 277 267 267 273 281 295 314
188 190 194 198 206 215 224 232 239 246 255 263 272 278 284 289 293 295 295 295 295 297 301 305 308 308 309 312 314 310 302 293 283 279 278 278 279 281 283 285 287 287 286 287 286 285 285 285 285 286 285 283 281 280 278 278 279 279 278 278 279 277 273 267 264 262 262 264 267 266 264 264 266 271 279 293 306 302 280 266 261 261 265 271 282
197 195 197 201 208 215 223 232 241 250 261 270 278 284 289 293 295 295 295 295 296 297 300 302 303 305 308 312 312 308 303 297 291 287 285 283 282 283 284 285 286 285 285 286 286 286 285 284 284 284 284 282 281 279 276 275 275 275 274 273 272 273 272 268 264 261 259 260 262 262 260 259 258 262 269 276 288 294 283 268 260 256 259 267 272
200 197 196 199 203 210 221 236 249 260 270 277 284 289 292 294 296 296 296 296 297 297 299 301 302 304 306 309 309 308 305 301 298 295 292 290 288 287 286 285 285 284 283 284 285 287 287 286 284 283 282 281 280 278 276 274 272 271 271 269 268 269 270 268 265 261 257 256 255 256 257 255 250 252 258 263 268 275 277 270 262 259 260 266 266
191 190 191 197 206 221 241 258 269 277 285 291 294 296 298 298 298 297 296 295 296 296 297 297 299 301 302 303 304 305 304 302 301 299 296 293 291 290 289 287 286 285 285 286 287 288 288 287 285 282 280 279 279 278 276 273 270 268 268 268 267 267 267 266 263 259 256 253 251 249 251 251 248 246 249 251 252 258 264 264 260 258 259 264 265
190 192 196 206 224 246 261 272 281 288 294 296 298 300 302 302 300 299 297 296 295 294 295 297 299 300 300 301 304 304 303 301 302 301 298 296 293 291 290 290 289 288 287 288 288 289 288 286 284 281 278 277 277 277 275 273 271 269 268 267 266 264 263 262 261 257 254 251 249 246 244 245 245 246 246 243 240 246 254 257 257 255 253 255 259
198 202 210 225 242 257 267 274 282 289 293 296 299 301 302 301 300 299 297 297 297 298 299 301 302 301 301 303 305 305 301 299 299 299 298 297 295 292 291 290 291 291 290 290 289 288 286 284 281 278 276 275 276 276 275 275 273 270 268 266 264 263 262 260 258 255 251 248 247 245 242 241 242 244 245 241 236 237 242 247 252 254 251 249 251
208 213 224 238 249 259 267 275 283 290 294 297 299 300 300 299 299 299 300 301 303 304 306 307 306 305 305 305 306 304 302 301 301 300 300 298 296 293 290 288 289 290 291 291 290 286 282 280 278 276 275 275 275 275 275 274 272 270 266 264 262 262 262 261 259 257 254 250 247 245 242 239 238 240 242 242 237 234 235 239 245 251 252 248 245
221 226 235 246 255 265 274 281 286 290 292 294 295 296 298 299 301 302 303 303 303 304 307 309 309 308 308 308 307 306 304 304 304 302 299 297 295 292 290 287 286 285 285 286 286 283 279 275 274 275 275 274 273 273 274 273 272 270 266 264 262 262 262 263 264 263 259 254 248 244 241 239 237 237 240 242 240 237 234 235 238 244 249 250 245
238 242 248 255 263 270 275 278 281 283 285 287 289 293 297 300 302 303 302 300 300 302 305 307 307 306 306 306 305 304 302 301 300 299 298 297 295 293 290 288 286 285 283 281 279 277 276 274 273 274 275 274 272 270 269 270 271 270 268 265 263 263 262 262 263 263 261 256 250 244 241 240 239 238 238 240 241 240 237 234 233 236 242 248 248
249 251 253 257 263 267 270 274 279 282 284 288 291 294 298 300 301 302 302 301 302 303 304 305 306 306 304 303 303 303 302 300 299 299 299 298 297 295 292 289 287 287 285 282 277 274 273 273 273 273 274 275 274 272 268 267 267 268 268 266 264 263 261 260 259 259 259 257 253 247 244 243 243 241 238 237 239 240 238 235 233 232 236 242 247
246 249 252 255 261 266 271 277 282 286 289 292 295 297 299 301 302 304 305 305 305 305 306 306 306 304 303 303 304 303 302 301 300 301 302 301 300 298 295 292 290 289 287 283 277 273 272 273 274 274 273 273 273 273 271 269 266 265 265 265 264 263 260 257 256 256 256 256 255 250 246 245 246 244 241 238 237 238 238 236 234 232 232 236 240
248 250 254 258 264 270 277 283 287 291 294 296 298 299 301 303 305 306 305 304 304 304 305 306 305 304 305 306 306 306 305 304 306 308 309 309 309 307 302 298 296 294 290 286 282 278 275 274 273 272 270 269 268 267 268 269 269 268 265 263 263 264 261 257 254 253 253 254 254 252 249 247 246 245 243 240 238 237 238 237 235 233 232 233 234
251 253 258 263 270 277 284 288 292 295 297 299 301 302 303 305 305 304 303 306 308 308 308 308 307 308 310 312 313 313 311 310 311 314 315 315 315 314 309 304 301 299 296 295 295 292 285 278 274 271 269 267 266 264 264 265 267 269 267 263 260 261 261 259 256 253 252 252 253 253 251 248 247 246 245 243 240 238 237 236 234 232 231 232 232
257 261 268 274 280 284 288 291 294 297 299 300 302 303 304 305 306 306 310 316 317 315 314 313 311 310 312 314 314 313 310 307 308 311 312 310 310 309 305 301 299 298 298 301 305 304 296 288 283 281 277 272 268 266 266 267 267 268 270 268 262 257 256 257 256 254 253 252 252 252 252 251 248 246 245 244 241 240 238 236 233 231 230 231 232
Height
1559 1561 1563 1564 1565 1567 1568 1569 1569 1569 1569 1570 1570 1571 1571 1572 1572 1573 1573 1573 1574 1574 1574 1574 1574 1574 1573 1573 1573 1572 1571 1571 1570 1570 1569 1568 1567 1566 1565 1564 1563 1562 1561 1560 1559 1558 1556 1555 1553 1551 1549 1548 1546 1545 1544 1544 1544 1543 1542 1541 1540 1539 1538 1537 1536 1535 1533 1532 1531 1530 1529 1527 1526 1524 1523 1522 1520 1519 1518 1517 1516 1514 1512 1511 1509
1560 1562 1563 1564 1566 1567 1568 1568 1568 1569 1569 1570 1571 1571 1572 1572 1573 1574 1574 1574 1575 1575 1576 1575 1575 1575 1575 1574 1573 1573 1572 1572 1571 1571 1570 1569 1568 1567 1566 1565 1564 1562 1561 1560 1559 1558 1557 1555 1553 1551 1549 1547 1545 1544 1544 1544 1543 1543 1542 1541 1540 1539 1538 1537 1536 1535 1534 1532 1531 1530 1528 1527 1526 1524 1522 1521 1520 1518 1517 1516 1515 1514 1512 1511 1509
1560 1562 1563 1564 1566 1567 1567 1568 1568 1569 1569 1570 1571 1571 1572 1573 1573 1574 1575 1575 1576 1576 1576 1576 1576 1576 1576 1575 1574 1573 1573 1572 1572 1571 1571 1570 1569 1568 1567 1566 1564 1563 1562 1561 1560 1558 1557 1555 1553 1551 1549 1547 1545 1544 1544 1544 1543 1543 1542 1541 1540 1539 1538 1537 1536 1535 1533 1532 1531 1529 1528 1527 1526 1524 1523 1521 1520 1518 1517 1515 1514 1513 1512 1510 1509
1560 1562 1563 1564 1566 1566 1566 1567 1568 1569 1570 1570 1571 1571 1572 1573 1574 1574 1575 1576 1576 1577 1577 1577 1577 1577 1577 1576 1575 1574 1574 1573 1572 1572 1571 1571 1570 1569 1568 1566 1565 1564 1563 1561 1560 1559 1557 1556 1553 1551 1549 1547 1546 1544 1544 1544 1543 1543 1542 1541 1540 1539 1538 1537 1536 1535 1533 1532 1531 1529 1528 1527 1525 1524 1523 1521 1519 1518 1516 1515 1513 1512 1511 1510 1508
1560 1562 1563 1564 1565 1566 1566 1567 1568 1569 1570 1571 1571 1572 1572 1573 1574 1575 1575 1576 1577 1577 1577 1577 1577 1578 1577 1577 1576 1575 1574 1574 1573 1572 1572 1571 1570 1569 1568 1567 1566 1565 1563 1562 1561 1560 1558 1556 1554 1552 1549 1548 1546 1545 1544 1544 1544 1543 1543 1542 1541 1540 1539 1538 1536 1535 1534 1532 1531 1529 1528 1527 1525 1524 1522 1521 1519 1517 1516 1514 1513 1511 1510 1509 1508
1560 1562 1563 1564 1565 1566 1566 1567 1568 1569 1570 1571 1571 1572 1572 1573 1574 1575 1576 1576 1577 1577 1578 1578 1578 1578 1578 1577 1577 1576 1575 1574 1573 1573 1572 1571 1571 1570 1569 1568 1567 1565 1564 1563 1562 1560 1559 1557 1555 1553 1550 1548 1547 1546 1545 1544 1544 1544 1543 1542 1541 1540 1539 1538 1537 1535 1534 1532 1531 1529 1528 1526 1525 1524 1522 1521 1518 1515 1514 1513 1512 1510 1508 1507 1507
1561 1562 1564 1564 1565 1566 1566 1567 1568 1569 1570 1571 1571 1572 1572 1573 1574 1575 1576 1576 1577 1577 1578 1578 1578 1578 1578 1577 1577 1576 1575 1575 1574 1573 1572 1572 1571 1570 1569 1568 1567 1566 1565 1564 1562 1561 1559 1557 1556 1553 1551 1549 1547 1546 1545 1544 1544 1544 1543 1542 1541 1540 1539 1538 1537 1535 1534 1532 1531 1529 1528 1526 1525 1523 1522 1521 1519 1516 1513 1511 1509 1508 1506 1505 1505
1561 1562 1564 1565 1566 1566 1567 1568 1569 1570 1570 1571 1572 1572 1573 1574 1574 1575 1575 1576 1576 1577 1577 1578 1578 1578 1578 1578 1577 1577 1576 1575 1574 1573 1573 1572 1571 1570 1570 1569 1568 1567 1565 1564 1563 1561 1560 1558 1556 1554 1551 1549 1548 1547 1546 1545 1544 1544 1543 1542 1542 1541 1540 1538 1537 1535 1533 1532 1531 1529 1528 1526 1525 1524 1522 1520 1518 1516 1514 1511 1509 1507 1505 1504 1504
1561 1563 1564 1565 1566 1566 1567 1568 1569 1570 1570 1571 1571 1572 1573 1573 1574 1574 1575 1575 1576 1576 1577 1578 1578 1578 1578 1577 1577 1577 1576 1575 1574 1574 1573 1572 1571 1571 1570 1569 1568 1567 1566 1565 1563 1562 1560 1558 1556 1554 1552 1550 1548 1547 1547 1546 1545 1544 1544 1543 1542 1541 1540 1539 1537 1535 1534 1532 1531 1529 1528 1527 1525 1524 1522 1520 1519 1517 1515 1513 1511 1508 1505 1504 1504
1562 1563 1564 1565 1566 1567 1567 1568 1569 1569 1570 1570 1571 1572 1572 1573 1573 1574 1574 1575 1575 1576 1577 1578 1578 1578 1578 1577 1577 1576 1576 1575 1574 1574 1573 1572 1571 1570 1569 1569 1568 1567 1566 1565 1564 1562 1560 1558 1557 1555 1553 1550 1549 1548 1547 1547 1546 1545 1544 1543 1542 1541 1540 1539 1537 1536 1534 1533 1531 1530 1529 1527 1526 1524 1523 1522 1520 1519 1516 1514 1512 1509 1507 1505 1504
1561 1563 1564 1565 1565 1566 1567 1567 1568 1569 1569 1570 1570 1571 1572 1572 1573 1573 1574 1575 1575 1576 1577 1577 1577 1578 1577 1577 1577 1576 1576 1575 1574 1574 1573 1572 1571 1570 1569 1568 1567 1567 1566 1565 1564 1562 1560 1559 1557 1555 1553 1550 1549 1548 1547 1547 1546 1546 1545 1544 1543 1542 1540 1539 1538 1536 1535 1534 1532 1531 1530 1529 1527 1526 1525 1523 1521 1519 1517 1515 1513 1510 1508 1507 1505
1560 1562 1563 1564 1564 1565 1566 1566 1567 1568 1568 1569 1570 1570 1571 1571 1572 1573 1574 1574 1575 1576 1577 1577 1577 1577 1577 1577 1576 1576 1575 1575 1574 1574 1573 1572 1571 1570 1569 1568 1567 1566 1566 1564 1563 1562 1560 1559 1557 1555 1553 1551 1549 1548 1547 1547 1547 1546 1545 1545 1543 1542 1541 1540 1538 1537 1536 1534 1533 1532 1531 1530 1528 1527 1525 1524 1522 1520 1518 1516 1514 1512 1510 1509 1507
1559 1561 1561 1562 1563 1564 1565 1566 1566 1567 1567 1568 1569 1569 1570 1571 1572 1573 1573 1574 1575 1576 1577 1577 1577 1577 1576 1576 1576 1575 1575 1574 1574 1573 1573 1572 1571 1570 1569 1568 1567 1566 1565 1564 1563 1562 1560 1559 1557 1555 1553 1551 1550 1548 1547 1547 1547 1546 1546 1545 1544 1543 1542 1541 1539 1538 1536 1535 1534 1533 1531 1530 1529 1527 1526 1525 1523 1521 1519 1517 1515 1514 1512 1510 1508
1558 1560 1560 1562 1563 1564 1565 1565 1565 1566 1567 1567 1568 1569 1570 1571 1572 1573 1573 1574 1575 1576 1576 1576 1576 1576 1576 1576 1576 1575 1575 1574 1573 1573 1572 1571 1570 1570 1569 1568 1567 1566 1565 1564 1563 1561 1560 1559 1558 1556 1554 1552 1550 1549 1548 1547 1547 1546 1545 1544 1543 1542 1541 1541 1540 1538 1537 1536 1534 1533 1532 1531 1530 1528 1527 1525 1524 1522 1520 1518 1516 1514 1513 1511 1510
1557 1558 1560 1561 1562 1563 1564 1564 1564 1565 1566 1566 1567 1568 1569 1570 1571 1572 1573 1574 1575 1575 1575 1575 1575 1576 1576 1575 1575 1575 1574 1574 1573 1572 1572 1571 1570 1569 1568 1568 1567 1566 1565 1564 1563 1561 1560 1559 1558 1557 1555 1553 1551 1549 1548 1548 1547 1546 1545 1544 1543 1542 1541 1541 1539 1538 1537 1536 1535 1534 1533 1531 1530 1529 1527 1526 1524 1523 1521 1519 1518 1516 1514 1512 1511
1555 1557 1559 1560 1561 1562 1564 1564 1564 1564 1565 1566 1567 1568 1569 1570 1571 1572 1573 1574 1574 1574 1574 1574 1574 1575 1575 1575 1574 1574 1573 1573 1572 1571 1571 1570 1569 1569 1568 1567 1566 1565 1564 1563 1562 1561 1560 1559 1558 1557 1555 1554 1552 1551 1550 1549 1548 1547 1546 1544 1543 1543 1542 1541 1540 1539 1538 1537 1536 1534 1533 1532 1530 1529 1528 1526 1525 1523 1522 1520 1519 1516 1515 1513 1512
1555 1556 1558 1559 1561 1562 1563 1563 1563 1563 1564 1565 1566 1567 1568 1569 1571 1572 1572 1573 1573 1573 1573 1573 1574 1574 1574 1574 1573 1572 1572 1572 1571 1571 1570 1569 1569 1568 1567 1566 1566 1565 1564 1563 1562 1561 1560 1559 1558 1557 1556 1555 1553 1552 1551 1550 1549 1548 1546 1545 1544 1543 1542 1541 1540 1539 1538 1537 1536 1534 1533 1532 1531 1529 1528 1526 1524 1523 1521 1520 1518 1517 1515 1514 1512
1554 1555 1557 1559 1560 1561 1562 1562 1563 1563 1563 1564 1565 1567 1568 1569 1570 1571 1571 1572 1572 1572 1572 1572 1573 1573 1573 1573 1572 1571 1571 1570 1570 1570 1569 1569 1568 1567 1567 1566 1565 1564 1564 1563 1562 1560 1559 1558 1557 1556 1556 1555 1554 1553 1552 1551 1550 1549 1547 1546 1544 1543 1542 1541 1540 1539 1538 1537 1535 1534 1532 1531 1530 1529 1527 1526 1524 1522 1521 1519 1518 1517 1516 1515 1513
1552 1555 1556 1558 1559 1560 1561 1562 1562 1562 1563 1564 1565 1566 1567 1569 1570 1570 1571 1571 1571 1572 1572 1572 1572 1572 1572 1572 1571 1570 1570 1569 1569 1568 1568 1568 1567 1566 1566 1565 1565 1564 1563 1563 1562 1560 1559 1558 1557 1556 1555 1555 1554 1553 1552 1551 1550 1549 1548 1546 1545 1544 1542 1541 1540 1539 1537 1536 1534 1532 1531 1530 1529 1528 1527 1525 1524 1522 1520 1519 1518 1517 1516 1515 1514
1552 1554 1556 1557 1558 1559 1560 1561 1562 1562 1563 1564 1565 1566 1567 1568 1569 1569 1570 1570 1570 1571 1571 1571 1571 1571 1571 1571 1570 1570 1569 1568 1568 1567 1567 1567 1566 1566 1565 1565 1564 1564 1563 1562 1561 1560 1559 1558 1556 1556 1555 1554 1554 1553 1552 1551 1550 1549 1548 1546 1545 1544 1542 1541 1540 1539 1537 1535 1534 1532 1531 1530 1529 1528 1526 1525 1523 1522 1520 1519 1518 1517 1517 1516 1515
1552 1554 1555 1556 1558 1559 1560 1561 1561 1562 1563 1564 1565 1566 1566 1567 1568 1568 1569 1569 1570 1570 1570 1570 1570 1570 1570 1570 1569 1569 1568 1567 1567 1567 1566 1566 1565 1565 1565 1564 1564 1563 1562 1562 1561 1560 1559 1558 1556 1555 1554 1554 1553 1552 1552 1551 1550 1549 1548 1546 1545 1544 1542 1541 1540 1539 1537 1535 1534 1532 1531 1530 1529 1527 1526 1525 1523 1521 1520 1519 1518 1517 1517 1516 1515
1551 1553 1554 1556 1557 1558 1559 1560 1561 1562 1563 1563 1564 1565 1566 1566 1567 1567 1568 1568 1569 1569 1569 1569 1569 1569 1569 1569 1569 1568 1567 1566 1566 1566 1565 1565 1565 1564 1564 1564 1563 1562 1562 1561 1560 1559 1558 1557 1556 1555 1554 1553 1552 1552 1551 1550 1549 1548 1547 1546 1545 1544 1542 1541 1540 1538 1537 1535 1534 1532 1531 1529 1528 1527 1525 1524 1523 1521 1520 1519 1518 1518 1517 1516 1515
1550 1552 1554 1555 1556 1557 1558 1559 1560 1561 1562 1562 1563 1564 1565 1565 1566 1566 1567 1567 1567 1568 1568 1568 1568 1568 1568 1568 1567 1567 1566 1565 1565 1565 1565 1565 1564 1564 1563 1563 1562 1562 1561 1560 1559 1558 1558 1556 1555 1554 1553 1552 1552 1551 1550 1549 1548 1547 1547 1545 1544 1543 1542 1541 1539 1538 1537 1535 1533 1532 1530 1529 1528 1526 1525 1524 1523 1522 1521 1519 1518 1518 1517 1516 1515
1550 1552 1553 1554 1555 1556 1557 1558 1559 1560 1561 1562 1562 1563 1563 1564 1565 1565 1566 1566 1566 1566 1566 1567 1567 1567 1566 1566 1566 1566 1565 1564 1564 1564 1564 1564 1563 1563 1563 1562 1561 1561 1560 1559 1558 1557 1557 1556 1554 1553 1552 1551 1550 1550 1549 1548 1547 1546 1546 1544 1544 1543 1541 1540 1539 1537 1536 1534 1532 1531 1530 1528 1527 1526 1525 1524 1523 1522 1521 1520 1519 1518 1516 1516 1515
1549 1551 1552 1553 1554 1555 1556 1557 1558 1559 1560 1561 1561 1562 1562 1563 1563 1564 1564 1564 1565 1565 1565 1565 1566 1565 1565 1565 1565 1565 1564 1564 1563 1563 1563 1563 1562 1562 1562 1561 1560 1560 1559 1558 1557 1556 1555 1554 1553 1552 1551 1550 1549 1548 1547 1547 1546 1545 1544 1543 1543 1542 1540 1539 1538 1536 1535 1533 1532 1530 1529 1528 1527 1526 1524 1524 1523 1522 1521 1520 1519 1518 1517 1516 1515
1549 1550 1551 1552 1553 1554 1555 1556 1557 1558 1559 1559 1560 1561 1561 1562 1562 1563 1563 1563 1563 1563 1564 1564 1564 1564 1564 1563 1563 1563 1563 1562 1562 1562 1562 1561 1561 1561 1560 1560 1559 1558 1557 1556 1556 1555 1554 1553 1552 1551 1550 1549 1548 1547 1546 1545 1544 1544 1543 1542 1541 1540 1539 1538 1537 1536 1534 1533 1531 1529 1528 1527 1526 1525 1524 1523 1523 1521 1520 1519 1519 1518 1517 1516 1516
1548 1549 1550 1551 1552 1553 1554 1555 1556 1557 1557 1558 1558 1559 1560 1560 1561 1561 1561 1562 1562 1562 1562 1563 1563 1562 1562 1562 1562 1561 1561 1560 1560 1560 1560 1560 1559 1559 1559 1558 1558 1557 1556 1555 1554 1553 1552 1551 1550 1549 1548 1547 1546 1545 1544 1543 1542 1541 1541 1540 1540 1539 1538 1537 1536 1535 1534 1532 1531 1529 1527 1526 1526 1525 1524 1523 1522 1521 1520 1519 1518 1518 1517 1516 1516
1547 1548 1549 1550 1551 1552 1552 1554 1554 1555 1556 1556 1557 1557 1558 1559 1559 1559 1560 1560 1561 1561 1561 1561 1561 1561 1560 1560 1560 1560 1559 1559 1559 1558 1558 1558 1558 1557 1557 1556 1556 1555 1554 1553 1552 1551 1551 1550 1549 1548 1547 1545 1544 1543 1542 1541 1540 1539 1539 1538 1538 1537 1537 1536 1535 1534 1533 1531 1530 1529 1527 1526 1525 1524 1524 1523 1522 1521 1520 1519 1518 1517 1516 1516 1515
1546 1548 1548 1549 1550 1550 1551 1552 1553 1554 1554 1555 1556 1556 1557 1558 1558 1558 1559 1559 1559 1560 1560 1559 1559 1559 1559 1559 1558 1558 1557 1557 1557 1557 1556 1556 1556 1555 1555 1554 1553 1553 1552 1552 1551 1549 1548 1548 1547 1546 1545 1544 1542 1541 1540 1539 1538 1537 1537 1536 1536 1536 1535 1534 1534 1533 1532 1531 1529 1528 1527 1526 1525 1524 1523 1522 1521 1521 1520 1519 1518 1517 1516 1515 1515
1545 1546 1547 1548 1549 1549 1550 1551 1552 1553 1553 1554 1555 1555 1556 1557 1557 1557 1557 1558 1558 1558 1558 1557 1557 1557 1557 1556 1556 1556 1555 1555 1555 1555 1554 1554 1554 1553 1552 1552 1551 1551 1550 1549 1548 1547 1546 1545 1545 1544 1543 1542 1540 1539 1538 1537 1537 1536 1535 1535 1534 1534 1534 1533 1532 1531 1531 1530 1529 1528 1526 1525 1524 1523 1522 1522 1521 1520 1519 1518 1517 1516 1515 1515 1514
1544 1545 1546 1547 1547 1548 1549 1550 1551 1552 1552 1553 1554 1554 1555 1555 1556 1556 1556 1556 1556 1556 1556 1556 1555 1555 1555 1554 1554 1553 1553 1553 1553 1553 1552 1552 1552 1551 1550 1550 1549 1548 1548 1547 1546 1545 1544 1543 1542 1542 1541 1540 1539 1538 1537 1536 1535 1534 1533 1533 1532 1532 1532 1531 1531 1530 1529 1528 1527 1527 1526 1525 1524 1523 1522 1521 1520 1520 1519 1518 1517 1516 1515 1515 1514
1543 1544 1544 1545 1546 1547 1548 1549 1550 1551 1552 1552 1553 1553 1553 1554 1554 1554 1555 1555 1555 1554 1554 1554 1553 1553 1553 1552 1551 1551 1551 1551 1550 1550 1550 1550 1549 1548 1548 1547 1546 1546 1545 1544 1543 1542 1541 1540 1539 1539 1538 1538 1537 1536 1535 1534 1533 1532 1531 1531 1530 1530 1530 1530 1529 1529 1528 1527 1526 1526 1525 1524 1523 1522 1521 1520 1519 1519 1519 1518 1517 1516 1516 1515 1514
1542 1542 1543 1544 1545 1546 1547 1548 1549 1550 1550 1551 1552 1552 1552 1552 1552 1552 1553 1553 1553 1552 1552 1552 1551 1551 1550 1550 1549 1548 1548 1548 1548 1548 1547 1547 1546 1546 1545 1544 1544 1543 1542 1541 1540 1539 1538 1538 1537 1536 1536 1535 1534 1533 1533 1532 1531 1530 1529 1528 1528 1528 1528 1528 1527 1527 1526 1526 1525 1524 1524 1523 1522 1521 1520 1519 1519 1518 1518 1517 1517 1516 1515 1515 1514
1541 1541 1542 1543 1544 1545 1546 1547 1548 1549 1549 1550 1550 1550 1551 1551 1551 1551 1550 1550 1550 1550 1550 1550 1549 1548 1548 1548 1547 1546 1546 1545 1545 1545 1544 1544 1544 1543 1542 1541 1541 1540 1539 1538 1537 1536 1535 1535 1534 1533 1533 1532 1531 1531 1530 1529 1528 1527 1526 1526 1526 1525 1525 1525 1525 1525 1524 1524 1523 1523 1523 1522 1521 1520 1520 1519 1518 1518 1517 1517 1516 1516 1515 1514 1514
1540 1540 1541 1542 1543 1545 1546 1547 1547 1548 1548 1549 1549 1549 1549 1549 1549 1549 1549 1548 1547 1547 1547 1547 1547 1546 1546 1545 1544 1544 1543 1543 1542 1542 1541 1541 1540 1540 1539 1538 1537 1537 1536 1535 1534 1533 1533 1532 1531 1531 1530 1529 1529 1528 1527 1527 1526 1525 1524 1524 1523 1523 1523 1523 1522 1522 1522 1522 1522 1522 1521 1521 1520 1520 1519 1518 1517 1516 1516 1516 1516 1515 1514 1514 1513
1539 1539 1540 1541 1543 1544 1545 1546 1546 1547 1547 1548 1548 1548 1548 1548 1548 1547 1547 1547 1546 1545 1544 1544 1544 1544 1544 1543 1542 1542 1541 1540 1540 1539 1538 1538 1537 1537 1536 1535 1534 1534 1533 1532 1531 1530 1529 1529 1528 1528 1527 1526 1526 1525 1525 1524 1523 1522 1522 1521 1521 1520 1520 1520 1520 1520 1520 1520 1520 1520 1520 1520 1519 1518 1518 1517 1516 1515 1515 1515 1515 1515 1514 1513 1513
1538 1538 1539 1541 1542 1543 1544 1544 1545 1545 1546 1546 1546 1547 1546 1546 1546 1546 1545 1545 1544 1543 1543 1542 1542 1541 1541 1540 1540 1539 1538 1538 1537 1536 1536 1535 1534 1534 1533 1532 1531 1531 1530 1529 1528 1527 1526 1526 1525 1524 1524 1523 1523 1522 1522 1521 1520 1520 1519 1519 1518 1518 1518 1518 1518 1518 1517 1517 1517 1517 1517 1518 1518 1517 1517 1516 1515 1514 1514 1514 1514 1514 1513 1513 1512
1537 1537 1539 1540 1541 1542 1542 1543 1543 1544 1544 1545 1545 1545 1545 1544 1544 1544 1543 1543 1542 1542 1541 1540 1540 1539 1538 1538 1538 1537 1536 1535 1534 1533 1533 1533 1532 1531 1530 1529 1528 1527 1526 1525 1525 1524 1523 1522 1522 1521 1521 1520 1519 1519 1518 1518 1517 1517 1516 1516 1515 1515 1515 1515 1515 1515 1515 1515 1515 1515 1515 1515 1515 1516 1515 1515 1514 1514 1513 1513 1513 1513 1512 1512 1512
1535 1536 1538 1539 1540 1540 1541 1542 1542 1543 1543 1543 1543 1543 1543 1543 1543 1542 1542 1541 1541 1540 1539 1539 1538 1537 1536 1535 1535 1534 1533 1532 1531 1531 1530 1530 1529 1528 1527 1526 1525 1524 1523 1522 1521 1520 1519 1519 1518 1518 1517 1517 1516 1515 1515 1515 1514 1514 1513 1513 1512 1512 1512 1512 1512 1512 1512 1512 1512 1512 1512 1512 1513 1513 1513 1513 1513 1513 1512 1512 1512 1511 1511 1511 1511
1534 1535 1537 1537 1538 1539 1540 1540 1541 1541 1541 1542 1542 1542 1542 1542 1541 1541 1540 1540 1539 1538 1537 1536 1535 1535 1534 1533 1532 1531 1530 1529 1528 1528 1527 1526 1525 1524 1523 1522 1521 1520 1519 1518 1518 1517 1516 1515 1514 1514 1513 1513 1512 1512 1512 1511 1511 1511 1510 1510 1509 1509 1509 1509 1508 1509 1509 1509 1509 1509 1509 1509 1510 1510 1510 1511 1511 1511 1511 1511 1510 1510 1510 1510 1510
1533 1534 1535 1536 1537 1538 1538 1539 1539 1540 1540 1540 1540 1540 1540 1539 1539 1539 1538 1537 1536 1535 1534 1533 1533 1532 1531 1530 1530 1529 1527 1525 1524 1524 1523 1522 1521 1520 1519 1518 1517 1516 1515 1514 1514 1513 1512 1511 1511 1510 1509 1509 1509 1508 1508 1508 1507 1507 1507 1507 1506 1506 1506 1506 1505 1505 1505 1506 1506 1506 1506 1506 1506 1507 1507 1508 1509 1509 1509 1509 1509 1509 1509 1509 1509
1532 1533 1534 1535 1536 1536 1537 1537 1538 1538 1538 1538 1538 1538 1537 1537 1536 1536 1535 1534 1533 1532 1531 1530 1529 1528 1528 1527 1526 1525 1523 1522 1521 1520 1518 1518 1517 1516 1515 1514 1513 1512 1511 1511 1510 1509 1508 1507 1507 1506 1505 1505 1505 1505 1504 1504 1504 1504 1504 1503 1503 1503 1503 1502 1502 1502 1502 1502 1502 1503 1503 1503 1503 1503 1504 1505 1506 1506 1507 1507 1507 1507 1507 1507 1507
1531 1532 1532 1533 1534 1535 1535 1536 1536 1536 1536 1536 1535 1535 1535 1534 1533 1533 1532 1531 1530 1529 1527 1526 1525 1524 1524 1523 1522 1521 1520 1518 1517 1516 1514 1513 1513 1511 1511 1510 1509 1508 1507 1506 1506 1505 1504 1503 1503 1502 1502 1501 1501 1501 1500 1500 1500 1500 1500 1500 1500 1499 1499 1499 1499 1499 1499 1499 1499 1499 1500 1500 1500 1500 1501 1501 1502 1503 1504 1504 1505 1505 1505 1505 1505
1530 1531 1531 1532 1533 1533 1534 1534 1534 1534 1533 1533 1533 1532 1532 1531 1531 1530 1529 1528 1527 1526 1524 1523 1522 1521 1520 1519 1518 1517 1516 1514 1514 1512 1511 1509 1508 1507 1506 1505 1504 1503 1503 1502 1501 1501 1500 1499 1498 1498 1497 1497 1497 1497 1497 1496 1496 1496 1496 1496 1496 1496 1496 1496 1496 1496 1496 1496 1496 1497 1497 1497 1497 1497 1498 1498 1499 1499 1500 1501 1502 1502 1503 1503 1503
1529 1529 1530 1530 1531 1532 1532 1532 1532 1532 1531 1531 1530 1530 1529 1529 1528 1527 1526 1524 1523 1522 1521 1520 1519 1518 1516 1515 1514 1513 1511 1510 1509 1507 1506 1504 1503 1502 1501 1500 1499 1498 1497 1496 1496 1496 1495 1494 1494 1494 1493 1493 1493 1492 1492 1492 1492 1492 1492 1492 1492 1492 1492 1492 1492 1492 1493 1493 1493 1494 1494 1494 1494 1494 1494 1495 1495 1496 1496 1497 1498 1499 1500 1500 1500
1528 1528 1528 1529 1529 1530 1530 1530 1530 1529 1529 1528 1528 1527 1526 1526 1525 1523 1522 1521 1520 1519 1518 1517 1516 1514 1513 1511 1510 1508 1507 1505 1503 1502 1501 1499 1498 1497 1496 1495 1494 1493 1492 1492 1491 1491 1490 1489 1489 1489 1488 1488 1488 1488 1488 1487 1487 1487 1487 1487 1487 1487 1487 1488 1488 1488 1489 1489 1490 1490 1490 1490 1491 1491 1491 1492 1492 1493 1493 1494 1495 1495 1496 1497 1497
1526 1526 1527 1527 1528 1528 1528 1528 1527 1527 1526 1526 1525 1524 1523 1522 1521 1520 1519 1517 1516 1515 1514 1512 1511 1510 1508 1507 1505 1504 1502 1500 1498 1497 1496 1494 1493 1492 1491 1490 1489 1488 1487 1487 1486 1486 1485 1484 1484 1483 1483 1483 1483 1483 1482 1482 1483 1483 1483 1483 1483 1483 1483 1484 1484 1484 1484 1485 1485 1486 1486 1486 1487 1487 1488 1488 1489 1489 1490 1491 1492 1492 1493 1494 1494
1524 1525 1525 1525 1526 1526 1526 1525 1525 1525 1524 1523 1522 1521 1520 1518 1517 1516 1515 1514 1512 1511 1510 1508 1507 1506 1504 1502 1501 1499 1497 1495 1493 1492 1490 1489 1488 1487 1486 1485 1484 1483 1482 1481 1480 1480 1479 1479 1478 1478 1477 1477 1477 1477 1477 1477 1477 1478 1478 1478 1478 1478 1479 1479 1479 1479 1480 1480 1481 1481 1482 1482 1482 1483 1484 1484 1485 1485 1486 1487 1488 1489 1490 1490 1491
1522 1523 1523 1523 1524 1524 1523 1523 1523 1522 1521 1520 1519 1518 1516 1515 1514 1513 1511 1510 1508 1507 1506 1505 1503 1502 1500 1498 1496 1494 1493 1491 1489 1488 1486 1485 1484 1483 1481 1480 1479 1478 1476 1475 1474 1473 1472 1472 1471 1471 1471 1471 1471 1471 1471 1471 1471 1471 1471 1472 1473 1473 1474 1474 1474 1474 1475 1475 1476 1476 1477 1477 1478 1478 1479 1479 1480 1481 1482 1482 1483 1485 1486 1487 1488
1521 1521 1521 1522 1521 1521 1521 1520 1520 1519 1518 1517 1515 1514 1513 1512 1510 1509 1507 1507 1505 1504 1503 1501 1500 1498 1497 1495 1493 1491 1489 1488 1486 1485 1483 1482 1480 1479 1477 1476 1474 1472 1471 1469 1468 1467 1467 1467 1466 1466 1465 1465 1464 1465 1465 1465 1465 1465 1465 1465 1466 1467 1468 1469 1469 1470 1470 1470 1470 1471 1471 1472 1472 1473 1473 1474 1475 1476 1477 1478 1479 1480 1482 1483 1484
1519 1520 1520 1520 1519 1519 1518 1518 1517 1516 1515 1513 1512 1510 1509 1508 1507 1506 1504 1504 1503 1501 1499 1498 1496 1495 1493 1492 1490 1488 1486 1485 1483 1482 1480 1478 1477 1475 1473 1472 1470 1468 1467 1465 1464 1463 1464 1463 1462 1461 1460 1459 1459 1460 1459 1459 1459 1459 1459 1459 1459 1459 1460 1462 1463 1464 1465 1465 1465 1465 1466 1466 1467 1467 1468 1469 1470 1471 1472 1473 1474 1475 1477 1478 1479